Powrót do katalogu

SHIYAN 28B-02

AktywnyNaukaLEO
NORAD 65226·PAYLOAD·🇨🇳 China
Ta nazwa satelity nie została jeszcze potwierdzona przez oficjalne źródła.

Wystrzelony Aug 17, 2025 z Xichang Satellite Launch Center

Loading…

Następne Przeloty (najbliższe 24 godziny)

TLE

ŚwieżeSource: Space-Track

Epoka: Sep 14, 2026, 15:17 UTC

1 65226U 25177A   26257.63732837  .00000563  00000-0  50591-4 0  9992
2 65226  10.9994  70.7658 0003552 352.0771   7.9401 14.29420793 56359

Śledź SHIYAN 28B-02 w czasie rzeczywistym z AllMySat

Download on the App Store